Tracking 22441 objects as of 1-Mar-2021
HD Live streaming from Space Station
objects crossing your sky now

BREEZE-M DEB

Track BREEZE-M DEB now!
10-day predictions


NORAD ID: 39174
Int'l Code: 2013-026C
Perigee: 398.5 km
Apogee: 14,754.1 km
Inclination: 50.8 °
Period: 273.2 minutes
Semi major axis: 13947 km
RCS: Unknown
Launch date: June 3, 2013
Source: Commonwealth of Independent States (former USSR) (CIS)
Launch site: TYURATAM MISSILE AND SPACE COMPLEX (TTMTR)

Note: This is SATELLITE DEBRIS
aabbcc
Your satellite tracking list
Your tracking list is empty




NASA's NSSDC Master Catalog

Two Line Element Set (TLE):
1 39174U 13026C   21059.42254781  .00000189  00000-0  11969-3 0  9993
2 39174  50.7512  61.4059 5146380  64.6259 339.4004  5.27069658148329
Source of the keplerian elements: AFSPC